Content
SEND FEEDBACK

Daily
Averages
Monthly
Summary
Mexico

SAN MARTINIANO, QUINTANA ROO


Home > North America > Mexico > Quintana Roo
Elevation: 49 feet     Latitude: 20 47N     Longitude: 087 16W

WEATHER
 
SELECT A DAY
Number of Records: 202,104;   Date Range: 2/21/06 - 10/23/14
 
SHARE

PRINT THIS DATA

[ ← Previous Day ]
WEATHER ALMANAC - JULY 22, 2014
[ Next Day → ]
[ °C ]   °F
Weather ElementAverageHighLow
Temperature81.4 °F95 °F (4:35 pm)73.4 °F (12:55 am)
Dewpoint39.4 °F78.8 °F (9:55 pm) (7:00 pm)
Humidity65.5 %100 % (9:55 pm)39 % (4:55 pm)
Barometer30.07 in30.11 in (11:15 pm)30.03 in (3:55 am)
Wind Speed2.3 mph11.5 mph (6:15 pm)
Wind Gust16.1 mph (6:15 pm)
Weather ElementAverage
Visibility8.7 mi
Wind DirectionENE (79.4 °)

Weather ElementTotal
Precipitation0.03 in
Cooling Degree Days19.2 (Base 65)
Growing Degree Days34.2 (Base 50)
Averaged from 70 records on July 22, 2014
WEATHER CONDITIONS BREAKOUT
WIND DIRECTION BREAKOUT
WEATHER BY HOUR - JULY 22, 2014
[ °C ]   °F
Local TimeTemperatureDewpointHumidityBarometerVisibilityWind DirectionWind SpeedGust SpeedPrecipitationEventsConditions
12:35 AM75.2 °F0.0 °F30.08 in10.0 miCalmClear
12:55 AM73.4 °F0.0 °F30.07 in7.0 miCalmClear
1:15 AM73.4 °F0.0 °F30.07 in7.0 miCalmClear
1:35 AM73.4 °F0.0 °F30.06 in7.0 miCalmClear
1:55 AM73.4 °F0.0 °F30.06 in7.0 miEast (80°)3.5 mphClear
2:15 AM73.4 °F0.0 °F30.05 in7.0 miCalmClear
2:35 AM73.4 °F0.0 °F30.04 in7.0 miEast (90°)3.5 mphClear
2:55 AM73.4 °F0.0 °F30.04 in7.0 miCalmClear
3:15 AM73.4 °F0.0 °F30.04 in7.0 miCalmClear
3:35 AM73.4 °F0.0 °F30.04 in5.0 miCalmHaze
3:55 AM73.4 °F0.0 °F30.03 in7.0 miEast (80°)3.5 mphClear
4:15 AM73.4 °F0.0 °F30.03 in7.0 miCalmClear
4:35 AM73.4 °F0.0 °F30.03 in7.0 miENE (70°)3.5 mphClear
4:55 AM73.4 °F0.0 °F30.03 in7.0 miEast (90°)4.6 mphClear
5:15 AM75.2 °F0.0 °F30.03 in7.0 miCalmClear
5:35 AM73.4 °F0.0 °F30.04 in7.0 miCalmClear
5:55 AM73.4 °F0.0 °F30.04 in5.0 miENE (70°)3.5 mphHaze
6:15 AM73.4 °F0.0 °F30.04 in5.0 miCalm0.01 inHaze
6:35 AM73.4 °F0.0 °F30.05 in5.0 miNorth0.01 inHaze
6:55 AM73.4 °F0.0 °F30.07 in4.0 miNorth0.01 inHaze
7:15 AM75.2 °F0.0 °F30.07 in4.0 miNorthHaze
7:35 AM75.2 °F0.0 °F30.07 in5.0 miEast (80°)3.5 mphHaze
7:55 AM77.0 °F0.0 °F30.08 in5.0 miCalmHaze
8:15 AM77.0 °F0.0 °F30.08 in7.0 miCalmMostly Cloudy
8:35 AM77.0 °F0.0 °F30.09 in7.0 miCalmScattered Clouds
8:55 AM78.8 °F0.0 °F30.09 in10.0 miCalmScattered Clouds
9:15 AM80.6 °F0.0 °F30.09 in10.0 miNorthScattered Clouds
9:35 AM82.4 °F0.0 °F30.09 in10.0 miNorthScattered Clouds
9:55 AM82.4 °F0.0 °F30.09 in10.0 miNorthMostly Cloudy
10:15 AM82.4 °F77.0 °F84 %30.09 in10.0 miNorthMostly Cloudy
10:35 AM84.2 °F75.2 °F74 %30.10 in10.0 miSSW (200°)5.8 mphMostly Cloudy
10:55 AM84.2 °F75.2 °F74 %30.10 in10.0 miCalmMostly Cloudy
11:15 AM86.0 °F75.2 °F70 %30.10 in10.0 miCalmScattered Clouds
11:35 AM86.0 °F75.2 °F70 %30.10 in10.0 miCalmScattered Clouds
11:55 AM87.8 °F73.4 °F62 %30.10 in10.0 miCalmScattered Clouds
12:15 PM87.8 °F73.4 °F62 %30.09 in10.0 miCalmMostly Cloudy
12:35 PM87.8 °F71.6 °F58 %30.09 in10.0 miCalmMostly Cloudy
1:15 PM89.6 °F73.4 °F59 %30.08 in10.0 miNorth (360°)3.5 mphMostly Cloudy
1:35 PM91.4 °F71.6 °F52 %30.09 in10.0 miCalmScattered Clouds
1:55 PM89.6 °F71.6 °F55 %30.08 in10.0 miNW (320°)3.5 mphClear
2:15 PM91.4 °F69.8 °F49 %30.08 in10.0 miCalmClear
2:35 PM93.2 °F71.6 °F49 %30.07 in10.0 miWest (280°)3.5 mphClear
2:55 PM91.4 °F69.8 °F49 %30.06 in10.0 miCalmClear
3:15 PM93.2 °F69.8 °F46 %30.06 in10.0 miNorth (10°)4.6 mphMostly Cloudy
3:35 PM93.2 °F68.0 °F44 %30.05 in10.0 miCalmMostly Cloudy
3:55 PM93.2 °F68.0 °F44 %30.05 in10.0 miNW (320°)3.5 mphScattered Clouds
4:15 PM93.2 °F66.2 °F41 %30.04 in10.0 miCalmClear
4:35 PM95.0 °F68.0 °F41 %30.04 in10.0 miSW (230°)4.6 mphScattered Clouds
4:55 PM95.0 °F66.2 °F39 %30.05 in10.0 miWSW (240°)4.6 mphScattered Clouds
5:15 PM93.2 °F66.2 °F41 %30.04 in10.0 miSW (220°)4.6 mphClear
5:35 PM91.4 °F68.0 °F46 %30.04 in10.0 miWSW (250°)6.9 mphClear
5:55 PM91.4 °F69.8 °F49 %30.04 in10.0 miWNW (290°)3.5 mphScattered Clouds
6:15 PM86.0 °F71.6 °F62 %30.05 in10.0 miNW (310°)11.5 mph16.1 mphMostly Cloudy
6:35 PM84.2 °F71.6 °F66 %30.05 in10.0 miNNW (330°)3.5 mphMostly Cloudy
6:55 PM84.2 °F69.8 °F62 %30.04 in10.0 miNorth (350°)5.8 mphScattered Clouds
7:15 PM84.2 °F69.8 °F62 %30.05 in10.0 miCalmClear
7:35 PM82.4 °F71.6 °F70 %30.06 in10.0 miEast (90°)8.1 mphMostly Cloudy
7:55 PM82.4 °F73.4 °F74 %30.07 in10.0 miSE (130°)8.1 mphScattered Clouds
8:15 PM80.6 °F73.4 °F79 %30.07 in10.0 miESE (120°)6.9 mphClear
8:35 PM80.6 °F75.2 °F84 %30.07 in10.0 miESE (120°)8.1 mphClear
8:55 PM80.6 °F75.2 °F84 %30.07 in10.0 miSE (140°)3.5 mphClear
9:15 PM78.8 °F77.0 °F94 %30.07 in10.0 miSSE (150°)3.5 mphClear
9:35 PM78.8 °F77.0 °F94 %30.08 in10.0 miSSE (150°)3.5 mphClear
9:55 PM78.8 °F78.8 °F100 %30.08 in10.0 miSouth (190°)3.5 mphClear
10:15 PM78.8 °F78.8 °F100 %30.09 in10.0 miCalmClear
10:35 PM78.8 °F78.8 °F100 %30.10 in10.0 miCalmScattered Clouds
10:55 PM78.8 °F78.8 °F100 %30.10 in10.0 miCalmClear
11:15 PM78.8 °F0.0 °F30.11 in10.0 miCalmClear
11:35 PM77.0 °F0.0 °F30.11 in10.0 miEast (90°)3.5 mphClear
11:55 PM77.0 °F0.0 °F30.11 in10.0 miESE (110°)3.5 mphClear
Hourly data recorded from KPCM, located miles away from San Martiniano, Quintana Roo







STORIES FROM OUR PARTNERS